Location: Daybis Observatory
(33.4273°N, 88.8061°W)
Time: 19:19:22
(UTC-05:00)

Daily predictions for brighter satellites

Satellite Brightness Start Highest point End
(mag) Time Altitude Azimuth Time Altitude Azimuth Time Altitude Azimuth
Cosmos 1821 Rocket 4.1 20:26:36 10° N 20:33:02 79° E 20:39:22 10° S
Cosmos 1378 3.3 20:33:50 10° S 20:37:35 81° W 20:41:22 10° N
Resurs 1-3 3.7 20:34:21 10° SSE 20:38:43 87° WSW 20:43:08 10° NNW
Cosmos 1340 Rocket 3.8 20:38:35 10° SSE 20:42:01 28° E 20:45:30 10° NNE
Cosmos 1954 Rocket 3.9 20:40:23 10° S 20:45:34 76° ESE 20:50:45 10° NNE
Meteor 2-5 Rocket 4.0 20:39:50 10° SSW 20:45:40 78° W 20:51:26 10° N
ATLAS 5 CENTAUR R/B 2.1 20:41:25 10° S 20:45:41 41° ESE 20:50:12 10° NE
Cosmos 1934 Rocket 4.0 20:41:01 10° N 20:47:11 78° E 20:53:14 10° S
Cosmos 1980 3.9 20:42:08 10° NNW 20:47:46 62° ENE 20:53:22 10° SSE
Skynet4D Del rocket 4.3 20:46:03 10° WSW 20:51:32 45° S 20:57:37 10° ESE
Cosmos 2084 3.9 20:48:21 10° S 20:52:03 33° ESE 20:55:36 10° NE
Cosmos 614 Rocket 4.1 20:47:46 10° S 20:52:52 57° ESE 20:57:58 10° NNE
YAOGAN 6 3.7 20:51:00 11° SE 20:54:00 28° ENE 20:57:10 10° NNE
Helios 1A 3.2 20:52:28 10° SSE 20:56:29 52° ENE 21:00:31 10° N
CZ-4B DEB 3.6 20:54:45 13° SE 20:56:58 29° ENE 20:59:37 10° NNE
Cosmos 1605 Rocket 4.1 20:51:20 10° N 20:57:33 64° E 21:03:49 10° SSE
Cosmos 2237 Rocket 2.2 20:52:33 10° NNW 20:58:10 70° ENE 21:03:42 10° SSE
Helios 1B rocket 2.4 20:55:26 10° NNE 20:59:34 72° E 21:03:41 10° S
CZ-3B R/B 3.4 20:58:10 10° SSW 21:00:21 41° ESE 21:05:24 10° NE
Meteor 2-15 Rocket 4.5 20:55:17 10° S 21:01:12 61° E 21:07:11 10° NNE
ATLAS 2A CENTAUR R/B 4.5 20:53:12 10° WSW 21:01:16 66° S 21:36:23 10° ESE
USA 234 3.4 20:56:07 10° NE 21:02:27 51° SE 21:08:45 10° SSW
Cosmos 1842 Rocket 3.5 20:59:17 10° N 21:03:39 68° E 21:07:58 10° SSE
H-2A R/B 4.1 21:01:54 10° E 21:03:48 12° ENE 21:05:43 10° NE
Atlas Centaur 2 1.2 21:00:22 10° W 21:03:57 52° S 21:06:40 15° ESE
ERS-1 Rocket 3.9 21:01:42 13° SE 21:05:29 31° ENE 21:09:53 10° N
Cosmos 2227 Rocket 3.4 21:03:12 10° SW 21:08:37 47° WNW 21:14:03 10° N
Meteor 1-24 Rocket 4.0 21:05:09 10° SSW 21:11:07 77° W 21:16:56 10° N
Cosmos 1727 Rocket 4.0 21:05:15 10° S 21:11:32 83° E 21:17:54 10° N
Lacrosse 4 Rocket 3.9 21:08:14 10° WSW 21:11:48 27° WNW 21:15:28 10° N
OAO 3 Rocket 4.4 21:09:40 10° W 21:13:40 28° SSW 21:16:41 15° SSE
SL-19 R/B 4.5 21:07:52 10° S 21:13:41 77° WSW 21:19:16 10° NNW
Cosmos 1741 Rocket 4.0 21:09:22 10° S 21:14:35 61° ESE 21:19:49 10° NNE
Cosmos 1674 3.6 21:12:38 18° SE 21:14:44 30° E 21:18:03 10° NNE
Cosmos 1184 Rocket 3.0 21:14:36 10° SSW 21:17:55 73° W 21:21:16 10° N
SL-16 R/B 2.7 21:16:11 10° N 21:21:35 44° ENE 21:25:10 20° SE
In-Cosmos 22 4.3 21:16:30 10° S 21:22:10 85° W 21:27:57 10° N
SEDSat Delta rocket 3.8 21:18:10 10° W 21:22:11 34° SSW 21:24:14 21° SSE
ARGOS 4.2 21:20:18 18° ESE 21:23:23 30° ENE 21:28:01 10° N
NOSS 3-4 (A) 3.9 21:20:54 10° NNW 21:28:06 79° ENE 21:33:43 20° SE
NOSS 3-4 (C) 3.9 21:21:00 10° NNW 21:28:11 79° ENE 21:33:47 20° SE
Cosmos 1356 Rocket 3.7 21:27:26 20° SSE 21:30:06 48° E 21:34:13 10° NNE
Cosmos 1076 Rocket 3.7 21:27:30 18° SSE 21:30:29 52° E 21:34:44 10° NNE
Tiangong 1 3.8 21:30:40 10° WNW 21:32:35 17° NNW 21:34:30 10° NNE
SAR-Lupe-4 3.8 21:32:54 19° S 21:35:20 66° WSW 21:38:54 10° NNW
Terra 4.0 21:36:48 10° ENE 21:37:35 10° ENE 21:38:23 10° NE
Meteor 2-1 Rocket 4.4 21:33:39 10° NNW 21:39:28 75° W 21:44:21 14° S
Cosmos 2219 Rocket 4.1 21:35:07 10° NW 21:39:37 25° WSW 21:44:06 10° SSW
Okean 3 Rocket 3.7 21:37:05 10° S 21:41:35 79° W 21:46:05 10° N
Cosmos 2333 Rocket 3.8 21:37:07 10° NW 21:41:57 30° WSW 21:46:46 10° SSW
Cosmos 2221 2.5 21:42:02 10° N 21:46:26 85° E 21:48:41 28° S
NOAA 11 4.1 21:46:09 25° SSE 21:49:22 79° ENE 21:54:49 10° N
Cosmos 2227 4.2 21:45:58 11° S 21:51:30 63° ESE 21:57:09 10° NNE
Cosmos 2208 Rocket 4.2 21:46:50 10° N 21:52:07 61° ENE 21:54:24 33° SE
SL-8 R/B 4.5 21:51:38 10° WNW 21:56:06 40° SW 21:57:47 29° S
SL-08 RB Rocket 4.1 21:56:03 37° ESE 21:57:18 47° ENE 22:01:42 10° N
SPOT 1/Viking Rocket 4.1 21:56:35 32° ESE 21:58:12 41° ENE 22:02:59 10° N
RESURS DK-1 4.1 21:55:47 10° NNE 21:58:48 19° ENE 21:59:21 19° ENE
YAOGAN 11 4.3 21:58:18 41° SE 21:59:37 60° ENE 22:04:05 10° N
Cosmos 1766 Rocket 3.4 21:58:37 36° S 22:00:18 77° E 22:04:39 10° N
Cosmos 1242 Rocket 2.4 21:58:11 10° N 22:01:55 82° E 22:02:30 60° SSE
Meteor 1-21 Rocket 4.3 21:57:45 12° SSW 22:03:04 76° W 22:08:42 10° N
USA 245 3.0 22:03:34 58° ENE 22:03:34 58° ENE 22:07:07 10° N
EO 1 Delta rocket 4.3 22:04:01 38° ESE 22:05:05 44° ENE 22:09:28 10° N
Cosmos 1570 Rocket 4.0 22:01:20 10° NNW 22:06:40 87° WSW 22:08:43 38° SSE
Milstar 3 Cent rocket 4.0 22:02:41 10° W 22:10:19 55° S 22:18:44 27° SE
SL-14 R/B 3.8 22:10:43 44° ENE 22:10:43 44° ENE 22:14:10 10° NNE
Cosmos 1328 Rocket 4.3 22:08:56 10° NNE 22:12:50 35° ENE 22:12:50 35° ENE
Cosmos 2228 Rocket 3.9 22:10:12 10° NNE 22:14:25 35° E 22:14:28 35° E
Cosmos 1328 4.1 22:15:50 50° ENE 22:15:50 50° ENE 22:19:28 10° NNE
Cosmos 1743 Rocket 3.8 22:16:55 48° E 22:16:55 48° E 22:20:56 10° NNE
H-2A R/B 3.8 22:17:20 19° ENE 22:17:20 19° ENE 22:20:14 10° NNE
MetOp-B 4.4 22:17:12 32° S 22:19:38 62° WSW 22:24:58 10° NNW
STPSAT 2 (USA 217) 4.5 22:19:23 53° S 22:20:25 81° ESE 22:24:59 10° NNE
Cosmos 2263 Rocket 2.9 22:21:44 34° E 22:21:44 34° E 22:26:13 10° NE
Delta 2 Rocket 4.1 22:17:42 10° WSW 22:23:23 61° SSE 22:25:01 44° ESE
Cosmos 1626 4.5 22:25:42 14° NE 22:25:42 14° NE 22:26:31 10° NE
Cosmos 1151 Rocket 4.5 22:21:46 10° NNE 22:24:51 25° ENE 22:24:51 25° ENE
Cosmos 1300 3.4 22:21:56 10° N 22:25:01 44° NE 22:25:01 44° NE
Cosmos 1459 Rocket 4.3 22:20:09 10° NNW 22:26:20 62° W 22:29:36 28° SSW
Cosmos 2100 Rocket 4.5 22:20:18 10° NNW 22:26:28 57° W 22:30:08 25° SSW
Cosmos 2061 Rocket 4.2 22:21:11 10° NNW 22:27:31 68° W 22:30:42 31° SSW
SPOT 5 3.0 22:28:20 47° SSW 22:29:32 66° WSW 22:34:29 10° NNW
ATLAS 5 CENTAUR R/B 4.5 22:27:07 10° W 22:30:31 20° NW 22:34:07 10° N
Cosmos 2123 Rocket 3.9 22:30:34 37° S 22:33:15 86° W 22:39:28 10° N
Cosmos 1726 2.5 22:30:22 10° N 22:33:27 61° N 22:33:27 61° N
Meteor 2-10 4.2 22:31:11 10° N 22:36:47 67° E 22:37:39 58° SE
Lacrosse 5 2.8 22:32:33 10° NNW 22:37:13 36° NE 22:38:08 33° ENE
Cosmos 468 Rocket 3.7 22:36:09 10° NNW 22:41:17 83° ENE 22:41:44 74° SE
H-2A R/B 2.1 22:41:25 57° SSW 22:42:27 75° WSW 22:47:51 10° NNW
Cosmos 371 Rocket 3.5 22:39:47 10° N 22:44:22 55° ENE 22:44:22 55° ENE
Cosmos 1603 3.5 22:43:00 10° NNW 22:48:41 85° ENE 22:49:18 71° SE
Atlas Centaur 2 3.8 22:49:09 10° WSW 22:49:18 11° WSW 22:49:18 11° WSW
Cosmos 1818 4.5 22:51:18 10° NW 22:56:15 36° WSW 22:56:55 35° SW
Cosmos 1455 4.4 22:56:24 10° NNE 22:57:48 18° NE 22:57:48 18° NE
Landsat 7 3.9 22:59:49 67° W 22:59:49 67° W 23:04:29 10° NNW
Cosmos 1725 Rocket 4.1 22:54:58 10° NNW 23:01:10 67° W 23:02:34 52° SSW
Sakura Rocket 4.2 22:55:56 10° W 23:01:39 48° SW 23:01:39 48° SW
SL-16 R/B 4.0 23:01:15 10° NW 23:05:18 20° W 23:07:03 18° SW
Cosmos 1943 3.4 23:00:22 10° NNW 23:05:56 56° ENE 23:05:59 56° ENE
CZ-4C R/B 4.2 23:09:43 14° ENE 23:09:43 14° ENE 23:10:43 10° ENE
deb Chang Zheng 4 4.2 23:03:43 10° NNE 23:07:04 52° N 23:07:04 52° N
Tiangong 1 4.5 23:07:36 10° NNW 23:07:54 11° NNW 23:07:54 11° NNW
CZ-4B R/B 3.8 23:08:38 10° NNE 23:13:09 62° NE 23:13:09 62° NE
Cosmos 2058 4.0 23:15:03 44° NNW 23:15:03 44° NNW 23:18:08 10° N
Terra 2.2 23:15:15 62° WNW 23:15:15 62° WNW 23:19:26 10° NNW
CZ-4 R/B 4.1 23:10:16 10° NNE 23:14:23 64° N 23:14:23 64° N
Cosmos 1354 Rocket 4.2 23:26:34 67° NNW 23:26:34 67° NNW 23:31:12 10° NNE
Cosmos 1464 Rocket 4.4 23:20:17 10° N 23:25:54 47° ENE 23:25:54 47° ENE
RESURS DK-1 4.5 23:33:15 10° NW 23:35:16 22° WNW 23:35:16 22° WNW
CZ-2C R/B 4.0 23:34:11 10° NNE 23:37:06 28° NE 23:37:06 28° NE
Cosmos 841 Rocket 4.4 23:47:22 10° NNW 23:51:18 41° WNW 23:51:18 41° WNW
H-2A R/B 4.1 23:54:27 23° WNW 23:54:27 23° WNW 23:56:43 10° NW
